Theta_e
312 314 315 321 326 324 324 323 326 338 342 342 340 341 341 341 342 344 331 333 334 336 336 337 337 337 337 337 337 336 335 335 333 332 331 331 332 333 334 335 336 338 337 335 334 334 333 332 331
313 313 320 324 325 325 327 328 329 341 342 340 338 340 341 340 333 331 331 333 334 335 335 336 337 337 336 333 329 325 321 319 317 315 315 316 318 322 328 331 333 334 334 335 336 336 335 334 334
313 313 321 325 326 326 329 330 337 341 338 339 336 336 337 333 329 326 330 333 334 333 335 336 334 329 322 316 312 310 308 308 308 308 308 308 308 308 308 311 317 325 329 331 333 334 335 336 335
314 318 320 325 326 325 328 332 336 334 333 335 337 334 327 324 325 325 331 333 334 333 334 331 322 317 312 309 308 308 308 309 309 309 309 309 309 309 309 309 308 308 310 315 320 328 334 334 334
314 317 323 323 325 323 322 333 333 335 336 336 335 332 328 322 322 327 331 332 330 328 323 319 314 311 308 308 308 308 309 309 309 309 309 309 309 310 310 310 310 309 309 309 308 308 316 325 333
317 318 322 323 324 321 322 334 331 331 330 330 330 330 327 322 320 325 327 327 324 320 317 315 311 308 308 308 308 309 309 309 309 309 309 309 309 309 309 309 309 310 310 309 309 309 308 308 312
318 321 323 323 322 323 324 333 329 328 328 328 329 331 325 322 319 326 324 320 317 313 312 310 308 308 308 308 308 308 308 309 309 309 309 309 309 309 309 309 309 309 309 308 309 309 310 310 309
317 320 321 322 321 323 323 332 326 325 325 324 326 329 328 323 317 321 317 312 310 309 308 308 308 308 308 308 308 308 308 308 309 309 309 308 308 308 308 308 307 307 307 306 307 307 307 308 309
315 320 322 322 320 322 322 326 322 320 322 322 322 322 325 320 317 315 312 309 308 308 307 308 308 308 308 308 308 308 308 308 308 308 308 308 308 307 306 306 305 305 305 305 304 305 305 305 306
318 321 322 319 319 319 320 321 321 321 322 322 320 319 320 317 316 315 313 312 310 308 308 308 308 308 308 307 307 308 308 308 308 308 307 307 306 306 305 304 304 303 303 303 303 303 303 303 304
318 321 319 317 316 316 319 319 321 322 323 323 322 320 318 318 317 316 315 312 311 309 309 308 307 307 307 307 307 307 307 307 307 307 306 306 305 304 303 302 302 301 301 301 301 302 302 302 303
318 317 317 316 315 315 317 318 318 320 321 319 321 320 318 319 318 317 314 311 310 309 309 308 307 307 306 306 306 306 306 306 306 306 305 304 304 302 302 301 300 300 300 300 301 301 301 302 302
318 318 316 315 315 316 315 317 318 318 318 317 320 319 319 320 318 315 313 311 310 309 308 307 307 306 306 306 306 306 306 306 306 305 305 304 303 302 301 300 300 299 299 300 300 301 301 302 302
318 318 318 317 317 317 316 316 316 317 317 318 319 319 319 319 317 314 311 311 310 308 307 307 306 306 306 306 306 306 306 305 305 304 304 302 301 299 298 298 298 298 298 299 300 300 301 302 302
317 318 319 319 318 318 315 316 316 316 317 318 318 318 318 317 315 313 312 311 309 308 307 306 306 306 306 306 305 305 305 304 303 302 301 300 299 298 298 297 297 297 298 299 300 301 302 302 302
319 319 319 319 318 317 316 318 318 316 317 318 318 318 317 315 313 312 311 310 308 307 306 306 306 306 305 305 305 304 304 303 302 301 300 299 298 297 297 296 296 297 298 300 301 302 302 301 301
321 322 321 320 318 317 318 320 317 316 317 318 318 316 315 313 312 310 310 309 308 307 306 306 305 305 305 305 304 303 303 302 301 300 298 296 295 295 295 295 295 296 297 300 301 301 301 300 300
324 322 322 321 318 316 318 319 317 315 317 318 317 316 315 313 311 310 309 308 307 306 306 305 305 304 304 303 303 302 302 301 299 298 297 295 295 294 294 294 294 294 296 299 300 301 300 298 297
320 321 321 321 318 318 320 320 320 316 316 317 317 316 315 313 312 309 308 307 306 306 305 304 304 303 302 301 301 300 299 299 298 296 294 294 293 293 293 292 292 293 295 298 299 300 300 297 295
320 321 322 321 320 319 320 320 320 320 316 316 317 316 315 314 311 309 307 306 306 305 304 304 303 302 301 300 300 299 298 298 295 293 292 292 292 291 291 291 291 293 295 297 299 299 299 296 294
321 322 322 322 321 320 320 321 321 320 315 315 315 315 314 313 310 308 307 306 306 305 304 303 303 302 301 301 301 300 298 296 294 293 291 292 291 291 291 291 290 291 293 296 298 297 298 296 294
324 322 320 320 321 323 318 323 322 320 315 314 314 313 314 313 311 309 307 306 306 305 304 303 302 302 301 301 300 298 295 295 293 291 291 290 290 291 290 290 289 290 291 293 295 294 295 295 293
321 321 320 321 322 323 322 321 322 320 317 314 314 313 313 312 311 309 307 306 306 304 304 303 302 302 301 300 299 296 294 295 293 291 290 290 290 290 289 289 289 289 289 290 291 293 294 291 292
319 318 316 316 318 322 321 322 322 322 320 318 315 313 312 311 310 308 307 306 305 304 303 303 302 302 300 299 299 295 295 294 291 290 289 289 289 288 288 288 288 287 287 288 288 289 289 289 289
317 318 322 322 319 321 318 319 320 317 315 316 316 313 311 310 309 308 307 305 304 303 303 302 301 300 300 299 298 295 295 293 291 290 289 289 288 288 288 287 287 286 286 286 286 286 288 288 287
318 319 322 322 323 322 316 318 319 316 315 315 315 312 311 310 309 308 307 305 304 303 303 302 300 300 298 298 297 295 293 291 290 289 289 288 288 287 287 286 286 285 286 285 285 285 286 286 286
320 321 319 321 321 324 322 320 319 315 315 314 313 313 311 309 308 307 306 305 303 303 303 301 300 299 297 297 296 294 292 291 290 289 288 287 287 286 285 285 285 285 285 285 285 285 284 285 285
319 318 321 322 324 324 321 321 323 320 317 316 315 312 311 309 308 307 305 304 302 304 301 300 299 297 296 296 294 291 291 290 289 288 286 286 286 285 285 284 285 285 285 284 284 284 284 284 284
316 317 317 316 318 320 322 323 318 318 320 318 314 310 310 308 307 307 304 304 301 301 300 299 298 296 295 294 292 291 290 289 288 287 286 285 285 284 284 284 284 284 284 284 284 284 283 283 283
314 314 315 319 319 318 321 323 316 314 315 316 315 307 308 308 306 306 304 303 299 301 299 299 298 297 294 293 291 291 289 288 287 286 285 284 284 284 284 284 284 284 284 284 284 283 283 283 283
Wind_Speed
3 3 2 4 7 6 8 4 3 5 5 1 11 1 7 14 2 2 11 10 13 11 8 8 8 7 7 7 6 5 5 4 3 2 1 0 0 2 3 5 7 9 10 11 12 13 13 14 13
4 3 4 4 7 8 4 2 8 6 7 12 11 9 6 5 7 9 10 11 13 11 9 8 9 7 6 5 5 4 3 2 1 2 2 3 3 4 5 6 8 10 11 13 14 15 15 16 16
4 4 8 4 6 8 2 5 8 10 11 8 5 7 4 5 7 10 11 12 14 12 8 8 7 6 5 5 4 4 3 3 2 3 4 4 5 5 6 6 8 10 11 13 14 15 17 18 18
2 4 6 9 9 2 2 2 9 12 8 7 7 8 8 2 5 9 17 13 15 13 11 8 7 6 4 4 3 3 3 2 3 4 5 6 7 8 8 8 9 11 12 13 14 15 17 18 19
5 6 8 11 6 2 1 3 15 12 10 12 8 7 6 7 11 13 17 13 12 11 10 8 6 4 3 3 1 1 1 3 4 6 7 8 10 11 12 13 14 16 16 16 16 16 18 19 20
10 6 9 10 9 5 3 11 12 11 11 11 6 10 6 12 13 17 16 15 14 12 10 8 7 6 4 3 1 1 3 5 6 8 9 11 12 13 15 16 16 18 18 18 19 19 20 21 22
13 7 12 8 5 8 6 14 12 10 10 11 9 6 10 14 14 18 16 14 14 13 11 10 8 6 3 2 2 3 5 6 8 9 10 12 14 15 16 18 18 19 20 20 20 20 21 23 24
8 6 8 8 8 6 8 17 9 10 8 9 8 7 8 21 19 19 17 15 13 12 11 9 7 5 2 1 2 3 5 6 7 9 10 12 14 16 17 18 19 19 20 21 21 21 22 22 23
4 8 9 8 9 6 13 11 9 4 9 6 5 2 5 25 22 19 17 16 14 12 10 9 6 4 2 2 3 4 4 6 8 10 12 13 14 15 17 18 19 20 21 22 22 23 23 23 24
9 8 5 2 2 5 13 9 12 9 12 10 9 6 18 26 24 21 17 15 13 13 10 8 5 4 3 3 2 2 3 6 8 10 12 13 14 16 17 18 19 20 21 23 23 23 23 24 24
5 10 2 5 3 3 11 9 11 10 12 14 15 19 23 26 24 21 17 15 13 12 9 7 6 5 4 2 1 4 6 8 10 10 12 14 16 18 20 21 22 23 24 24 25 26 26 25 25
8 4 4 3 3 4 7 9 8 14 1 3 9 21 25 28 25 22 19 16 14 12 9 6 4 2 1 3 4 5 6 8 10 12 13 15 17 19 21 22 23 25 26 27 27 26 27 27 27
10 7 7 5 3 4 4 9 8 12 6 3 15 22 25 25 22 19 17 14 13 10 7 5 3 2 2 1 1 3 4 6 9 12 14 16 17 19 20 21 22 24 25 26 27 28 29 29 28
4 9 9 8 8 7 9 8 6 10 8 11 17 21 23 24 22 20 18 15 13 10 7 6 5 4 3 2 0 2 5 7 9 12 13 15 17 18 19 20 21 23 24 25 26 28 28 28 27
6 12 11 13 13 10 10 11 13 7 12 14 17 20 22 23 22 20 18 15 13 10 9 7 6 4 3 1 1 3 5 8 10 13 15 16 17 18 20 22 23 24 24 25 26 26 26 25 25
10 7 12 9 12 9 13 17 6 12 17 17 18 19 21 22 20 18 17 15 13 11 10 8 7 5 3 1 1 3 6 8 11 14 16 17 17 18 18 19 20 22 23 23 24 25 24 22 23
10 13 12 6 9 6 16 13 8 12 16 18 20 21 22 22 21 18 16 14 12 11 10 9 8 7 5 3 1 3 6 10 12 13 14 15 16 16 17 18 19 20 21 22 23 23 22 22 22
12 12 10 12 8 11 14 15 10 12 16 18 21 23 25 25 25 22 19 17 14 13 12 10 9 7 4 2 3 4 7 9 12 14 15 15 15 16 17 18 18 20 20 21 22 23 21 19 21
12 12 14 9 5 6 13 16 17 17 18 18 22 25 27 27 24 22 20 18 16 14 12 11 9 6 4 2 3 4 5 10 12 12 12 12 13 14 14 15 17 17 18 20 21 21 21 17 20
16 15 16 15 10 10 16 20 19 17 23 27 29 29 29 28 27 25 22 19 17 15 13 13 10 7 5 2 0 2 5 7 8 9 11 11 13 15 16 17 17 16 16 17 19 20 20 17 18
18 17 15 14 9 14 16 25 26 24 22 25 22 24 26 31 29 28 25 21 18 16 15 13 12 9 6 3 1 3 4 5 7 9 10 12 14 15 16 15 15 15 15 15 17 19 19 18 16
19 14 12 16 12 11 2 12 9 8 17 17 22 24 27 30 29 28 26 23 20 17 17 16 14 10 6 4 2 1 1 1 8 8 10 12 14 15 16 15 14 14 13 14 15 16 17 17 16
15 7 11 12 15 16 17 8 7 6 14 16 20 26 28 30 31 30 28 25 21 20 19 17 14 10 8 5 3 2 2 7 8 9 10 11 12 12 11 12 12 12 12 13 14 14 15 15 14
6 7 7 7 9 13 17 16 22 15 17 14 18 23 26 29 31 30 28 26 23 21 20 19 16 14 10 5 2 1 4 6 6 8 6 8 9 10 11 11 10 10 11 12 12 13 13 13 12
15 11 5 8 7 10 2 11 18 3 4 6 12 21 25 29 32 33 32 29 25 24 23 22 20 14 9 6 3 2 5 6 6 6 6 6 7 8 9 9 9 10 11 11 12 11 11 11 12
20 17 9 11 12 13 8 10 7 3 3 6 6 15 21 27 31 33 34 30 27 26 26 25 20 15 10 7 5 4 4 5 6 6 6 5 5 5 6 7 9 10 11 11 11 11 11 11 11
12 15 17 20 22 12 16 20 12 9 9 10 11 15 22 26 30 32 33 29 27 28 31 24 21 16 12 9 7 5 3 5 5 5 4 3 3 4 6 7 8 9 10 11 11 11 12 11 12
15 5 6 9 7 19 15 17 12 6 13 11 10 17 20 23 27 30 33 30 26 35 26 24 21 16 13 10 8 5 5 6 4 3 1 1 3 4 4 5 7 9 10 10 11 11 13 12 12
9 13 12 11 14 12 15 14 8 5 12 14 9 17 20 24 27 30 36 28 29 29 29 25 21 18 15 12 9 7 7 5 3 2 1 0 1 2 4 5 7 8 9 10 11 12 13 13 13
15 16 16 12 13 13 14 16 3 5 5 8 12 22 19 21 27 28 33 34 30 30 30 27 22 19 16 13 12 9 7 6 4 3 2 2 2 2 3 5 6 7 9 10 11 13 14 14 15
Wind_Direction
273 283 224 209 238 238 251 199 325 163 165 83 115 199 123 22 5 36 140 151 152 147 145 163 159 164 162 166 164 168 177 179 174 176 174 136 292 269 269 269 266 260 258 259 258 256 257 259 258
269 244 185 243 254 237 190 139 200 102 108 126 114 114 112 84 65 122 135 148 143 143 136 163 167 165 164 147 145 144 137 117 75 19 9 3 334 312 307 296 284 274 273 272 272 273 271 267 266
275 218 243 239 253 262 322 175 130 121 139 162 123 69 89 86 108 138 159 158 155 145 160 171 163 164 157 133 129 122 109 91 74 47 30 18 3 346 335 317 301 291 286 281 279 280 280 277 271
247 217 232 246 242 137 306 138 153 143 145 165 150 106 91 112 150 160 158 163 164 162 159 176 164 162 156 157 142 133 107 75 37 21 12 3 350 341 330 322 310 300 292 285 281 280 279 277 277
231 241 245 242 220 186 222 167 165 171 150 165 177 133 102 106 133 154 164 161 158 167 161 167 166 157 163 165 141 67 16 12 7 359 351 342 336 332 326 321 316 308 303 295 289 282 276 276 275
228 262 239 235 193 188 157 161 164 160 154 155 158 136 115 149 148 165 164 168 164 165 163 170 186 178 183 187 229 315 341 349 342 336 334 331 327 322 319 316 312 308 305 300 295 289 284 280 275
256 237 262 275 202 200 160 167 172 160 168 172 156 137 146 161 164 169 164 167 169 165 161 177 181 177 190 218 268 319 328 329 332 329 324 322 320 321 319 317 315 311 308 304 301 296 290 284 279
260 262 246 231 205 191 158 175 183 190 159 151 169 177 171 180 165 169 164 167 168 167 163 172 166 163 187 245 280 301 318 321 317 319 326 329 329 327 324 321 318 316 313 311 307 302 297 291 286
235 246 246 227 215 189 160 175 174 189 164 172 168 140 157 166 163 160 160 166 168 167 170 173 175 189 213 266 305 310 309 319 332 336 337 335 332 329 328 326 325 323 320 317 314 311 308 303 295
237 250 256 16 217 216 177 208 173 173 172 190 176 131 149 162 164 164 167 164 164 171 173 174 178 183 190 204 222 274 334 345 346 346 344 341 339 337 333 330 328 326 325 322 319 316 312 308 303
214 265 145 168 147 211 179 194 181 206 204 204 201 172 167 168 171 171 173 169 164 169 173 174 175 176 175 180 6 8 5 1 354 349 346 345 343 341 339 336 334 332 330 327 325 322 318 313 307
237 234 227 148 133 208 197 169 198 213 97 226 205 180 172 174 175 174 173 170 161 165 175 181 175 146 90 48 30 17 7 1 354 349 348 346 344 342 340 338 336 335 333 331 330 326 322 318 313
230 202 196 169 215 241 183 207 224 222 230 185 165 170 175 177 175 174 172 165 159 167 177 172 159 157 150 105 33 12 356 349 347 344 341 340 337 335 334 331 330 329 328 327 327 325 323 320 316
197 236 216 200 210 236 233 209 222 207 190 176 172 175 178 180 177 173 172 167 165 178 180 183 185 183 178 175 139 2 354 347 340 336 336 337 336 335 333 331 330 330 331 330 328 326 324 321 317
256 250 221 222 219 216 216 227 230 212 183 182 181 179 179 182 181 180 176 171 172 169 189 192 187 191 183 145 42 4 351 347 343 339 338 337 335 334 333 330 330 331 332 333 330 328 324 321 318
248 254 240 183 190 179 196 252 180 191 188 190 185 183 183 183 182 180 177 170 163 169 185 189 185 176 157 130 26 4 355 347 340 335 333 332 330 329 328 326 327 329 331 332 331 330 328 325 323
218 257 218 190 215 173 204 240 134 185 196 194 190 186 185 184 182 183 176 172 165 170 185 188 182 172 168 166 86 10 354 345 336 329 330 332 331 331 330 329 330 331 333 334 334 333 331 330 326
253 233 244 244 181 222 213 245 163 194 200 203 196 191 190 190 190 184 178 174 170 183 189 183 178 175 168 126 46 2 346 339 341 338 334 331 331 333 334 333 332 333 335 337 337 338 338 335 327
282 267 261 257 172 257 239 251 253 198 211 207 204 200 198 197 191 187 181 177 179 185 178 179 184 175 151 87 30 1 350 343 334 328 326 329 331 333 334 336 336 339 339 341 342 345 346 345 339
254 256 252 261 247 251 257 256 253 246 211 213 208 205 202 194 191 187 183 179 180 179 179 186 185 181 166 151 347 340 322 318 318 332 336 337 340 341 342 342 339 341 343 345 347 353 357 357 356
240 253 263 266 291 261 272 269 252 237 220 224 218 215 207 199 193 189 185 181 177 177 185 187 190 189 190 188 251 306 308 327 356 341 336 339 342 342 341 340 340 341 343 346 352 357 1 357 3
251 244 252 261 263 265 197 283 282 199 215 225 216 212 208 202 200 194 187 181 179 180 187 191 193 195 204 218 236 257 204 238 331 331 339 341 344 341 340 341 343 343 344 347 355 359 4 4 1
269 240 240 254 254 266 241 255 269 195 199 210 215 212 207 201 198 195 189 184 180 186 190 192 194 202 216 228 245 32 350 335 332 337 340 341 336 338 341 345 348 349 350 348 354 358 7 6 7
254 222 227 233 244 249 241 231 270 240 217 217 208 205 204 199 196 194 190 182 181 184 189 196 200 208 210 220 274 343 325 328 329 329 331 338 338 347 349 351 356 357 358 358 359 360 357 358 2
197 194 229 228 213 249 126 226 247 136 116 239 212 199 196 195 193 191 188 184 183 186 191 196 201 208 204 214 240 271 301 307 307 312 325 344 350 347 346 355 3 6 6 7 7 3 359 360 360
209 212 231 257 256 274 130 246 259 60 99 198 202 193 192 192 193 193 190 186 186 191 197 204 200 208 200 209 230 259 281 312 310 319 325 335 343 344 350 2 9 9 11 11 13 8 5 4 6
239 223 252 265 272 278 262 265 264 181 201 200 197 195 194 193 193 193 190 187 189 194 204 198 202 201 199 212 223 237 284 286 286 290 303 331 343 355 7 11 13 12 14 17 21 13 14 12 11
247 264 213 218 244 246 256 256 253 194 232 204 193 198 190 192 192 192 190 188 188 208 201 201 202 196 203 212 217 212 233 243 250 268 285 358 12 21 20 18 22 21 21 24 30 23 21 22 17
204 234 235 268 245 260 268 269 316 302 237 221 193 197 190 190 191 190 192 190 196 202 199 202 196 198 202 208 205 208 216 221 218 218 217 121 49 42 34 32 31 30 28 32 32 31 28 28 24
273 276 259 240 253 245 256 262 281 310 274 221 201 203 191 192 193 189 193 191 196 199 201 204 199 201 204 205 201 202 204 199 186 195 183 148 110 79 60 47 43 41 38 39 39 38 32 30 27